Terug naar catalogus

CZ-6A DEB

ActiefPO
NORAD 60883·DEBRIS·🇨🇳 China

Gelanceerd Aug 6, 2024 vanaf Taiyuan Satellite Launch Center

Loading…

Volgende Passages (komende 24 uur)

TLE

VersSource: Space-Track

Epoch: Sep 14, 2026, 09:27 UTC

1 60883U 24140KN  26257.39422210  .00003432  00000-0  39416-3 0  9999
2 60883  88.8021 236.9210 0127867 234.5912 124.3317 14.79801654111160

Volg CZ-6A DEB in realtime met AllMySat

Download on the App Store